GPS BIIRM-2 (PRN 31) (29486 NORAD) Tracking and Keplerian Element Data

This shows tracking and keplerian element data for the satellite.

Feedback or suggestion? Click here.




ElementValue
Catalog29486
NameGPS BIIRM-2 (PRN 31)
Epoch Orbit13439
Epoch Day34.48348484
Epoch Year2025
RAAN171.1218
Inclination54.6813
Eccentricity0.0105112
Argument of Perigee44.9838
Mean Anonmoly5.7668
Mean Motion2.00569522
Decay Rate6E-07
L11 29486U 06042A 25034.48348484 .00000060 00000+0 00000+0 0 9992
L22 29486 54.6813 171.1218 0105112 44.9838 5.7668 2.00569522134398



Live tracking and technical data element details for GPS BIIRM-2 (PRN 31) (NORAD 29486). GPS BIIRM-2 (PRN 31) can be tracked NOW for your location showing map with azimuth and elevation plus other details from your city location.







IsCatalogInMostPopularTable: catalog: 29486, numindb: 354
Update: records affected: 1



GetName: 29486 GPS BIIRM-2 (PRN 31)

Hit Count: updated at: Fri, 16 May 2025 11:27:44 GMT